Voltar ao catálogo

SJ-31

AtivoMilitarHEO
NORAD 69570·PAYLOAD·🇨🇳 China

Lançado Jun 16, 2026 de Xichang Satellite Launch Center

Loading…

Próximas Passagens (próximas 24 horas)

TLE

AtualizadoSource: Space-Track

Época: Sep 14, 2026, 10:51 UTC

1 69570U 26136A   26257.45242589 -.00000182  00000-0  00000+0 0  9997
2 69570  63.4843 346.8857 6936102 172.0265 211.4381  1.92224027  1806

Acompanhe SJ-31 em tempo real com AllMySat

Download on the App Store